User: anonymous   Login
Location: Unspecified
(0.0000°N, 0.0000°E)
Time: 18:30:53
(UTC+00:00)
Language:

Courier 1B - Orbit

View from above orbital plane
View from above orbital plane
View from above satellite
View from above satellite

Ground track
Ground track

The orbit data is extracted from the following two-line orbital elements,

1 00058U 60013A   17289.64824004  .00000116  00000-0  43535-4 0  9990
2 00058  28.3300   0.0277 0165010 278.8565  79.3330 13.46310578807683
Epoch (UTC): 16 October 2017 15:33:27
Eccentricity: 0.0165010
inclination: 28.3300°
perigee height: 963 km
apogee height: 1209 km
right ascension of ascending node: 0.0277°
argument of perigee: 278.8565°
revolutions per day: 13.46310578
mean anomaly at epoch: 79.3330°
orbit number at epoch: 80768

The dashed part of the orbit path shows where the satellite is in the earth's shadow,  

DLR